User: anonymous   Login
Location: Unspecified
(0.0000°N, 0.0000°E)
Time: 05:46:33
(UTC+02:00)
Language:

Centaur D-1AR AC-41 - Orbit

View from above orbital plane
View from above orbital plane
View from above satellite
View from above satellite

Ground track
Ground track

The orbit data is extracted from the following two-line orbital elements,

1 10976U 78068B   17230.48238274 -.00000085  00000-0 -78029-4 0  9998
2 10976  21.1858 180.0426 7193003 297.9850 307.0778  2.22314266317634
Epoch (UTC): 18 August 2017 11:34:37
Eccentricity: 0.7193003
inclination: 21.1858°
perigee height: 583 km
apogee height: 36257 km
right ascension of ascending node: 180.0426°
argument of perigee: 297.9850°
revolutions per day: 2.22314266
mean anomaly at epoch: 307.0778°
orbit number at epoch: 31763

The dashed part of the orbit path shows where the satellite is in the earth's shadow,  

DLR